FW8343 Weather Reports


Display with metric or nautical units.
time (UTC)temp
F
wind
direction
speed
MPH
gust
MPH
rain 1hr
in
rain 24hr
in
rain mn
in
humidity
%
barometer
mb
20260506091011 34 0 1.0 4.0 0.00 0.00 0.00 67 1012.8
20260506090513 34 256 1.0 7.0 0.00 0.00 0.00 67 1012.8
20260506090032 34 0 1.0 7.0 0.00 0.00 0.00 66 1012.7
20260506085510 34 256 2.0 7.0 0.00 0.00 0.00 66 1012.6
20260506085010 34 0 0.0 3.0 0.00 0.00 0.00 66 1012.8
20260506084536 34 259 0.0 3.0 0.00 0.00 0.00 66 1012.7
20260506084012 34 259 0.0 4.0 0.00 0.00 0.00 66 1012.7
20260506083514 34 0 1.0 4.0 0.00 0.00 0.00 66 1012.7
20260506083030 34 259 0.0 3.0 0.00 0.00 0.00 66 1012.7
20260506082511 34 259 1.0 4.0 0.00 0.00 0.00 66 1012.7
20260506082013 34 0 1.0 4.0 0.00 0.00 0.00 66 1012.7
20260506081529 34 0 1.0 4.0 0.00 0.00 0.00 66 1012.7
20260506081012 35 259 0.0 4.0 0.00 0.00 0.00 66 1012.7
20260506080509 35 259 1.0 4.0 0.00 0.00 0.00 66 1012.7
20260506073511 35 259 1.0 4.0 0.00 0.00 0.00 65 1012.8
20260506073032 35 300 0.0 3.0 0.00 0.00 0.00 67 1012.8
20260506072512 35 300 0.0 3.0 0.00 0.00 0.00 66 1012.8
20260506072014 35 300 1.0 3.0 0.00 0.00 0.00 66 1012.8
20260506071531 35 300 1.0 3.0 0.00 0.00 0.00 66 1012.7
20260506071010 35 0 0.0 4.0 0.00 0.00 0.00 68 1012.7
20260506070512 35 0 0.0 4.0 0.00 0.00 0.00 66 1012.7
20260506062512 35 298 1.0 5.0 0.00 0.00 0.00 65 1012.6
20260506062015 35 290 0.0 5.0 0.00 0.00 0.00 66 1012.6
20260506061532 35 0 1.0 5.0 0.00 0.00 0.00 65 1012.6
20260506061010 35 0 2.0 5.0 0.00 0.00 0.00 65 1012.5
20260506060513 35 319 0.0 5.0 0.00 0.00 0.00 67 1012.5
20260506051011 34 302 1.0 4.0 0.00 0.00 0.00 68 1012.1
20260506050512 34 0 0.0 8.0 0.00 0.00 0.00 68 1012.1
20260506045011 34 0 0.0 1.0 0.00 0.00 0.00 69 1011.9
20260506044538 34 0 0.0 0.0 0.00 0.00 0.00 68 1011.9
20260506044011 34 0 0.0 0.0 0.00 0.00 0.00 68 1011.8
20260506043515 34 0 0.0 0.0 0.00 0.00 0.00 68 1011.8
20260506043032 34 0 0.0 0.0 0.00 0.00 0.00 67 1011.9
20260506042511 34 0 0.0 2.0 0.00 0.00 0.00 66 1011.9
20260506042014 35 0 0.0 2.0 0.00 0.00 0.00 67 1011.9
20260506041546 35 0 0.0 1.0 0.00 0.00 0.00 66 1011.9
20260506041015 35 0 0.0 2.0 0.00 0.00 0.00 66 1011.9
20260506040510 35 0 0.0 3.0 0.00 0.00 0.00 65 1011.9
20260506040033 36 0 0.0 4.0 0.00 0.00 0.00 65 1011.9
20260506035509 36 0 1.0 4.0 0.00 0.00 0.00 64 1011.9
20260506035010 36 0 0.0 2.0 0.00 0.00 0.00 64 1011.9
20260506034531 36 0 0.0 2.0 0.00 0.00 0.00 65 1012.0
20260506034011 36 0 0.0 3.0 0.00 0.00 0.00 64 1011.9
20260506033512 36 292 0.0 3.0 0.00 0.00 0.00 63 1011.9
20260506033032 37 292 0.0 3.0 0.00 0.00 0.00 64 1011.9
20260506032511 37 292 0.0 2.0 0.00 0.00 0.00 63 1011.9
20260506032015 37 0 0.0 3.0 0.00 0.00 0.00 63 1011.9
20260506031533 37 0 0.0 5.0 0.00 0.00 0.00 62 1012.0
20260506031012 37 317 1.0 8.0 0.00 0.00 0.00 62 1011.9
20260506030515 38 0 1.0 8.0 0.00 0.00 0.00 61 1011.9
20260506030031 38 325 1.0 3.0 0.00 0.00 0.00 62 1011.8
20260506025511 38 336 1.0 3.0 0.00 0.00 0.00 61 1011.7
20260506025011 38 355 0.0 4.0 0.00 0.00 0.00 61 1011.7
20260506024536 38 0 0.0 4.0 0.00 0.00 0.00 61 1011.7
20260506024014 38 265 1.0 4.0 0.00 0.00 0.00 61 1011.6
20260506023513 38 0 0.0 6.0 0.00 0.00 0.00 61 1011.6
20260506023031 38 273 2.0 6.0 0.00 0.00 0.00 60 1011.5
20260506022510 38 329 1.0 7.0 0.00 0.00 0.00 61 1011.5
20260506022012 38 277 1.0 7.0 0.00 0.00 0.00 60 1011.5
20260506021530 38 0 1.0 4.0 0.00 0.00 0.00 60 1011.4
20260506021016 38 286 1.0 9.0 0.00 0.00 0.00 60 1011.3
20260506020515 38 286 1.0 9.0 0.00 0.00 0.00 62 1011.2
20260506020030 39 279 2.0 9.0 0.00 0.00 0.00 61 1011.2
20260506015510 39 329 0.0 3.0 0.00 0.00 0.00 62 1011.2
20260506015015 39 329 0.0 3.0 0.00 0.00 0.00 61 1011.1
20260506014532 39 0 0.0 3.0 0.00 0.00 0.00 61 1011.1
20260506014010 39 329 1.0 6.0 0.00 0.00 0.00 59 1011.0
20260506013511 39 18 2.0 6.0 0.00 0.00 0.00 59 1010.9
20260506013032 39 0 2.0 6.0 0.00 0.00 0.00 59 1011.0
20260506012510 39 0 1.0 5.0 0.00 0.00 0.00 59 1010.9
20260506012015 40 325 0.0 5.0 0.00 0.00 0.00 59 1010.9
20260506011558 40 263 1.0 5.0 0.00 0.00 0.00 58 1010.8
20260506011015 40 310 2.0 6.0 0.00 0.00 0.00 59 1010.7
20260506010510 40 319 2.0 6.0 0.00 0.00 0.00 58 1010.6
20260506010031 40 334 1.0 8.0 0.00 0.00 0.00 57 1010.6
20260506005515 40 321 0.0 8.0 0.00 0.00 0.00 60 1010.6
20260506005010 40 321 2.0 8.0 0.00 0.00 0.00 57 1010.4
20260506004541 40 0 1.0 6.0 0.00 0.00 0.00 57 1010.4
20260506004012 40 267 2.0 6.0 0.00 0.00 0.00 57 1010.4
20260506003528 41 351 2.0 8.0 0.00 0.00 0.00 57 1010.3
20260506003031 41 326 2.0 8.0 0.00 0.00 0.00 56 1010.3
20260506002514 41 289 1.0 4.0 0.00 0.00 0.00 59 1010.3
20260506002017 41 0 0.0 4.0 0.00 0.00 0.00 57 1010.2
20260506001532 41 287 1.0 10.0 0.00 0.00 0.00 57 1010.3
20260506001011 41 317 2.0 10.0 0.00 0.00 0.00 55 1010.2
20260506000516 41 290 2.0 10.0 0.00 0.00 0.00 56 1010.1
20260506000032 42 334 4.0 10.0 0.00 0.00 0.00 55 1010.1
20260505235511 42 328 2.0 8.0 0.00 0.00 0.00 55 1010.1
20260505235011 42 254 2.0 8.0 0.00 0.00 0.00 54 1010.0
20260505234530 42 337 2.0 9.0 0.00 0.00 0.00 55 1010.0
20260505234014 42 0 2.0 9.0 0.00 0.00 0.00 57 1010.1
20260505233510 42 323 1.0 4.0 0.00 0.00 0.00 56 1010.0
20260505233034 42 295 2.0 7.0 0.00 0.00 0.00 55 1009.9
20260505232512 42 311 3.0 8.0 0.00 0.00 0.00 55 1009.9
20260505232013 42 0 2.0 8.0 0.00 0.00 0.00 55 1009.9
20260505231538 42 280 2.0 7.0 0.00 0.00 0.00 55 1009.9
20260505231011 42 285 3.0 7.0 0.00 0.00 0.00 54 1010.0
20260505230511 42 331 2.0 9.0 0.00 0.00 0.00 54 1010.0
20260505230031 42 275 2.0 13.0 0.00 0.00 0.00 55 1009.9
20260505225513 42 280 4.0 13.0 0.00 0.00 0.00 54 1009.9
20260505225013 42 282 3.0 12.0 0.00 0.00 0.00 53 1009.7
20260505224529 42 266 0.0 8.0 0.00 0.00 0.00 56 1009.8
20260505224013 43 289 2.0 8.0 0.00 0.00 0.00 53 1009.8
20260505223517 43 271 2.0 7.0 0.00 0.00 0.00 54 1009.8
20260505223033 43 0 1.0 8.0 0.00 0.00 0.00 52 1009.7
20260505222510 43 265 2.0 9.0 0.00 0.00 0.00 52 1009.8
20260505222018 43 270 4.0 9.0 0.00 0.00 0.00 51 1009.7
20260505221534 43 211 2.0 11.0 0.00 0.00 0.00 51 1009.5
20260505221010 44 355 1.0 11.0 0.00 0.00 0.00 53 1009.6
20260505220512 44 295 4.0 11.0 0.00 0.00 0.00 52 1009.6
20260505220046 44 288 2.0 9.0 0.00 0.00 0.00 52 1009.6
20260505215514 44 309 2.0 9.0 0.00 0.00 0.00 52 1009.6
20260505215011 44 265 4.0 9.0 0.00 0.00 0.00 50 1009.5
20260505214533 44 225 2.0 9.0 0.00 0.00 0.00 52 1009.6
20260505214013 44 305 2.0 9.0 0.00 0.00 0.00 52 1009.5
20260505213511 44 308 2.0 10.0 0.00 0.00 0.00 51 1009.5
20260505213032 43 264 3.0 12.0 0.00 0.00 0.00 51 1009.5
20260505212509 44 267 5.0 12.0 0.00 0.00 0.00 50 1009.6
20260505212017 44 246 6.0 11.0 0.00 0.00 0.00 49 1009.5
20260505211537 44 260 4.0 10.0 0.00 0.00 0.00 51 1009.5
20260505211008 43 277 5.0 9.0 0.00 0.00 0.00 53 1009.6
20260505210511 43 261 5.0 11.0 0.00 0.00 0.00 51 1009.4
20260505210039 43 273 3.0 11.0 0.00 0.00 0.00 53 1009.5
20260505205516 43 265 3.0 12.0 0.00 0.00 0.00 53 1009.6
20260505205014 43 265 3.0 12.0 0.00 0.00 0.00 52 1009.5
20260505204531 43 268 6.0 12.0 0.00 0.00 0.00 51 1009.6
20260505204011 43 263 4.0 12.0 0.00 0.00 0.00 51 1009.5
20260505203511 43 300 4.0 10.0 0.00 0.00 0.00 54 1009.5
20260505203033 43 296 4.0 9.0 0.00 0.00 0.00 51 1009.4
20260505202508 43 272 4.0 10.0 0.00 0.00 0.00 52 1009.5
20260505202014 42 286 4.0 10.0 0.00 0.00 0.00 55 1009.6
20260505201530 42 264 3.0 11.0 0.00 0.00 0.00 54 1009.6
20260505201009 42 278 5.0 11.0 0.00 0.00 0.00 53 1009.6
20260505200513 42 276 2.0 9.0 0.00 0.00 0.00 55 1009.5
20260505200030 42 302 3.0 13.0 0.00 0.00 0.00 54 1009.6
20260505195512 42 273 5.0 13.0 0.00 0.00 0.00 53 1009.6
20260505195012 42 261 7.0 13.0 0.00 0.00 0.00 52 1009.6
20260505194528 42 257 5.0 13.0 0.00 0.00 0.00 51 1009.4
20260505194018 42 271 4.0 11.0 0.00 0.00 0.00 55 1009.4
20260505193511 41 239 3.0 14.0 0.00 0.00 0.00 55 1009.5
20260505193035 41 283 5.0 14.0 0.00 0.00 0.00 53 1009.6
20260505192509 42 254 6.0 13.0 0.00 0.00 0.00 53 1009.6
20260505192015 42 272 3.0 9.0 0.00 0.00 0.00 54 1009.5
20260505191529 42 238 4.0 9.0 0.00 0.00 0.00 52 1009.5
20260505191009 42 329 2.0 12.0 0.00 0.00 0.00 54 1009.4
20260505190517 42 270 3.0 12.0 0.00 0.00 0.00 54 1009.5
20260505190029 42 309 3.0 10.0 0.00 0.00 0.00 53 1009.4
20260505185509 41 276 4.0 10.0 0.00 0.00 0.00 56 1009.4
20260505185012 41 263 4.0 10.0 0.00 0.00 0.00 54 1009.4
20260505184531 41 263 3.0 9.0 0.00 0.00 0.00 56 1009.4
20260505184009 41 304 2.0 10.0 0.00 0.00 0.00 56 1009.5
20260505183512 40 311 3.0 10.0 0.00 0.00 0.00 56 1009.4
20260505183043 40 321 5.0 11.0 0.00 0.00 0.00 55 1009.5
20260505182509 40 250 3.0 11.0 0.00 0.00 0.00 55 1009.5
20260505182015 40 253 4.0 11.0 0.00 0.00 0.00 57 1009.4
20260505181550 40 284 4.0 11.0 0.00 0.00 0.00 54 1009.5
20260505181012 40 261 2.0 9.0 0.00 0.00 0.00 55 1009.4
20260505180514 40 271 3.0 11.0 0.00 0.00 0.00 56 1009.4
20260505180029 39 265 4.0 11.0 0.00 0.00 0.00 57 1009.5
20260505175509 39 260 4.0 11.0 0.00 0.00 0.00 57 1009.5
20260505175010 38 262 4.0 13.0 0.00 0.00 0.00 58 1009.5
20260505174529 38 255 7.0 13.0 0.00 0.00 0.00 56 1009.5
20260505174009 38 271 5.0 10.0 0.00 0.00 0.00 57 1009.5
20260505173513 38 264 3.0 9.0 0.00 0.00 0.00 59 1009.5
20260505173028 38 265 2.0 9.0 0.00 0.00 0.00 59 1009.4
20260505172516 38 264 4.0 11.0 0.00 0.00 0.00 58 1009.4
20260505172014 37 275 3.0 11.0 0.00 0.00 0.00 60 1009.4
20260505171530 37 275 5.0 11.0 0.00 0.00 0.00 60 1009.4
20260505171011 37 311 2.0 11.0 0.00 0.00 0.00 62 1009.5
20260505170514 36 274 4.0 11.0 0.00 0.00 0.00 62 1009.4
20260505170030 36 254 4.0 11.0 0.00 0.00 0.00 61 1009.5
20260505165509 37 277 4.0 11.0 0.00 0.00 0.00 63 1009.4
20260505165014 36 309 1.0 8.0 0.00 0.00 0.00 63 1009.2
20260505164545 36 265 3.0 9.0 0.00 0.00 0.00 62 1009.2
20260505164011 36 259 3.0 9.0 0.00 0.00 0.00 63 1009.3
20260505163510 36 266 4.0 9.0 0.00 0.00 0.00 63 1009.1
20260505163030 36 277 3.0 11.0 0.00 0.00 0.00 63 1009.2
20260505162510 36 227 3.0 11.0 0.00 0.00 0.00 63 1009.1
20260505162014 36 268 3.0 10.0 0.00 0.00 0.00 62 1009.1
20260505161527 36 272 3.0 10.0 0.00 0.00 0.00 63 1009.1
20260505161011 36 294 4.0 10.0 0.00 0.00 0.00 62 1009.1
20260505160511 36 268 4.0 10.0 0.00 0.00 0.00 63 1009.1
20260505153032 36 290 3.0 8.0 0.00 0.00 0.00 60 1008.5
20260505152512 36 0 2.0 10.0 0.00 0.00 0.00 61 1008.4
20260505152010 36 282 4.0 14.0 0.00 0.00 0.00 60 1008.4
20260505151531 37 288 5.0 14.0 0.00 0.00 0.00 60 1008.4
20260505151010 37 263 2.0 7.0 0.00 0.00 0.00 61 1008.2
20260505150513 37 273 2.0 14.0 0.00 0.00 0.00 62 1008.1
20260505140512 38 231 2.0 9.0 0.00 0.00 0.00 64 1007.5
20260505125012 34 331 2.0 10.0 0.00 0.00 0.00 71 1007.0
20260505124539 34 230 4.0 9.0 0.00 0.00 0.00 70 1006.9
20260505124010 34 328 2.0 10.0 0.00 0.00 0.00 71 1006.7
20260505123513 33 281 2.0 10.0 0.00 0.00 0.00 71 1006.7
20260505123031 33 285 3.0 10.0 0.00 0.00 0.00 72 1006.6
20260505122507 33 333 4.0 9.0 0.00 0.00 0.00 72 1006.6
20260505122015 33 265 5.0 9.0 0.00 0.00 0.00 73 1006.5
20260505121535 33 278 4.0 11.0 0.00 0.00 0.00 73 1006.4
20260505121011 33 285 3.0 11.0 0.00 0.00 0.00 74 1006.5
20260505120511 33 263 3.0 10.0 0.00 0.00 0.00 77 1006.4
20260505120037 33 327 2.0 9.0 0.00 0.00 0.00 78 1006.3
20260505115509 33 281 2.0 9.0 0.00 0.00 0.00 79 1006.2
20260505115012 33 296 3.0 9.0 0.00 0.00 0.00 79 1006.2
20260505114530 33 267 2.0 11.0 0.00 0.00 0.00 80 1006.0
20260505114011 33 281 3.0 11.0 0.00 0.00 0.00 80 1006.1
20260505113511 33 272 4.0 11.0 0.00 0.00 0.00 80 1006.0
20260505113032 33 266 4.0 10.0 0.00 0.00 0.00 79 1006.0
20260505112510 34 315 3.0 10.0 0.00 0.00 0.00 79 1006.1
20260505112010 34 278 2.0 8.0 0.00 0.00 0.00 77 1006.0
20260505111529 34 271 2.0 8.0 0.00 0.00 0.00 76 1005.9
20260505111015 34 274 3.0 8.0 0.00 0.00 0.00 76 1005.8
20260505110511 34 262 2.0 7.0 0.00 0.00 0.00 76 1005.7
20260505102012 34 263 2.0 7.0 0.00 0.00 0.00 76 1005.2
20260505101532 34 231 2.0 7.0 0.00 0.00 0.00 76 1005.1
20260505101013 34 271 1.0 7.0 0.00 0.00 0.00 75 1005.0
20260505100512 34 278 1.0 7.0 0.00 0.00 0.00 75 1005.0
20260505100030 34 294 2.0 9.0 0.00 0.00 0.00 74 1004.8
20260505095510 34 294 3.0 10.0 0.00 0.00 0.00 73 1004.8
20260505095013 35 272 1.0 10.0 0.00 0.00 0.00 73 1004.8
20260505094531 35 286 2.0 10.0 0.00 0.00 0.00 72 1004.7
20260505094010 35 245 1.0 4.0 0.00 0.00 0.00 72 1004.7
20260505093511 35 0 1.0 5.0 0.00 0.00 0.00 71 1004.7
20260505093031 35 269 2.0 5.0 0.00 0.00 0.00 71 1004.6
20260505092514 35 255 2.0 4.0 0.00 0.00 0.00 70 1004.5
20260505092013 36 255 1.0 3.0 0.00 0.00 0.00 70 1004.4
20260505091530 36 255 1.0 3.0 0.00 0.00 0.00 71 1004.4